Regional Weather Roundup
Issued by NWS Albany, NY

Home | Current Version | Previous Version | Text Only | Print | Product List | Glossary On
Versions: 1 2 3 4 5 6 7 8 9 10 11 12 13 14 15 16 17 18 19 20 21 22 23 24 25 26 27 28 29 30 31 32 33 34 35 36 37 38 39 40 41 42 43 44 45 46 47 48 49 50
000
ASUS41 KALY 260210
RWRALY

NEW YORK STATE HOURLY WEATHER ROUNDUP
NATIONAL WEATHER SERVICE ALBANY NY
900 PM EST SUN JAN 25 2015

NOTE: "FAIR" INDICATES FEW OR NO CLOUDS BELOW 12,000 FEET WITH NO
SIGNIFICANT WEATHER AND/OR NO OBSTRUCTIONS TO VISIBILITY.

NYZ032-033-038>043-046>054-057>066-NYZ062>081-260300-
EAST


CITY           SKY/WX    TMP DP  RH WIND       PRES   REMARKS
ALBANY         MOCLDY    16   1  51 NW6       30.02R WCI   7
GLENS FALLS    PTCLDY    14  -1  51 N16       30.02R WCI  -2
POUGHKEEPSIE   PTCLDY    23   4  44 NE8       29.99R WCI  14
NEWBURGH       PTCLDY    23  10  58 NE7       29.97R WCI  15
MONTGOMERY     MOCLDY    25   6  44 NW6       29.95R WCI  18
WHITE PLAINS   MOCLDY    28  11  48 NW7       29.94R WCI  21
ISLIP          CLOUDY    32  16  51 N7        29.94R WCI  26
NEW YORK CITY  CLOUDY    33  12  41 N14       29.96R WCI  23
CENTRAL PARK   CLOUDY    34   9  35 VRB5      29.98R WCI  30
$$

NYZ005>009-017-018-044>046-055-056-260300-
CENTRAL


CITY           SKY/WX    TMP DP  RH WIND       PRES   REMARKS
FULTON         PTCLDY     2  -3  80 CALM      30.05F
SYRACUSE       MOCLDY     6   1  80 E3        30.05S
ROME           MOCLDY     8  -4  58 NE3       30.06F
ELMIRA         CLOUDY    16   9  74 E5        29.98R WCI   9
BINGHAMTON     MOCLDY    10   3  73 N7        29.92R WCI  -1
MONTICELLO     MOCLDY    18   3  53 NW3       29.92R
$$

NYZ026>034-041>043-260300-
NORTH


CITY           SKY/WX    TMP DP  RH WIND       PRES   REMARKS
WATERTOWN      FAIR       1  -5  75 E6        30.10R WCI -10
FORT DRUM      NOT AVBL
MASSENA        PTCLDY     5  -6  60 W6        30.13R WCI  -6
SARANAC LAKE   PTCLDY   -11 -15  82 CALM      29.94R
PLATTSBURGH    CLEAR      8  -4  58 CALM      30.08R
$$

NYZ001>004-010>016-019>021-260300-
WEST


CITY           SKY/WX    TMP DP  RH WIND       PRES   REMARKS
NIAGARA FALLS  MOCLDY    13   6  74 E5        30.02R WCI   5
BUFFALO        MOCLDY    13   4  67 NE6       30.01R WCI   4
DUNKIRK        CLOUDY    15   7  70 NE13      29.99S WCI   1
JAMESTOWN      CLOUDY    12   7  79 NE12      29.85F WCI  -2
WELLSVILLE     CLOUDY    11   4  73 E9        29.87S WCI  -2
ROCHESTER      PTCLDY     9   3  77 CALM      30.04R
PENN YAN       PTCLDY    12   4  70 CALM      30.00R
$$

             KEY
       WCI = WIND CHILL INDEX
       VSB = VISIBILITY
       HX  = HEAT INDEX
$$


USA.gov is the U.S. government's official web portal to all federal, state and local government web resources and services.